Location: Newark
(35.1686°N, 108.2815°E)
Time: 05:00:49
(UTC+00:00)

Hubble Space Telescope - Pass Details

Date: 12 April 2020
Orbit: 536 x 540 km, 28.5° (Epoch: 30 May)

Event Time Altitude Azimuth Distance (km) Brightness Sun altitude
Rises 12:00:26 0° 256° (WSW) 2,668 5.4 -9.4°
Reaches altitude 10° 12:02:51 10° 246° (WSW) 1,777 4.2 -9.8°
Maximum altitude 12:06:31 31° 183° (S) 937 1.8 -10.5°
Enters shadow 12:09:19 15° 126° (SE) 1,487 2.4 -11.1°
